Wind_Speed
30 33 35 34 32 30 28 24 20 17 16 19 22 24 25 25 25 24 23 23 23 24 23 21 21 21 21 19 18 18 19 21 23 25 25 26 25 24 22 23 23 23 24
21 21 21 19 16 14 13 12 10 11 13 17 20 22 22 23 23 22 22 22 22 23 23 22 21 21 21 19 18 18 19 20 22 24 26 27 26 25 24 23 21 20 20
9 9 8 7 6 6 5 4 6 9 12 15 17 19 21 20 21 21 22 22 23 24 24 23 22 21 21 20 19 19 20 20 21 22 24 26 27 28 27 25 23 22 22
7 7 7 6 5 3 1 3 7 10 13 16 19 20 20 20 20 21 22 23 24 25 26 24 23 23 23 22 21 20 20 21 20 20 22 25 26 28 29 29 28 27 26
9 8 7 6 3 1 3 6 9 12 15 17 19 19 20 20 19 19 20 22 24 26 26 26 25 25 25 24 23 22 21 21 21 21 22 23 25 27 29 30 30 30 30
8 7 6 4 4 4 6 8 10 13 15 17 19 20 21 21 20 20 20 21 22 25 27 27 27 26 26 26 25 24 23 22 22 22 22 22 23 25 27 27 28 29 30
8 7 7 7 7 9 10 12 14 16 17 19 20 21 22 23 22 22 21 21 21 22 25 26 27 28 27 27 26 26 26 25 25 25 25 24 23 24 24 25 26 26 28
9 9 10 11 12 13 14 16 18 19 21 22 23 23 23 23 23 21 20 20 21 21 21 22 23 25 27 28 27 27 27 27 27 26 26 27 26 27 27 27 27 27 28
11 11 12 13 13 14 16 17 18 20 20 21 22 23 23 22 21 21 20 20 21 21 21 22 21 21 21 23 25 26 26 27 27 27 26 26 27 27 27 27 27 27 28
12 12 12 12 13 14 15 17 18 19 20 21 21 22 22 21 21 21 21 22 22 22 22 22 22 22 21 22 23 24 24 24 25 25 25 25 25 25 26 27 28 28 29
13 13 14 14 15 15 16 17 17 17 18 19 19 19 20 21 21 21 21 22 22 23 23 23 23 24 23 23 23 23 23 22 22 22 22 23 23 24 25 25 27 27 27
14 15 16 17 17 17 17 18 17 17 16 16 17 17 18 19 19 19 19 20 21 22 22 23 23 23 24 24 25 25 24 22 20 19 19 19 20 21 22 23 24 24 25
15 16 17 18 18 19 19 19 18 17 17 16 16 17 17 17 17 17 17 18 19 20 21 22 23 23 24 25 25 25 24 23 21 19 17 16 16 17 19 21 23 25 26
17 18 19 19 20 21 21 20 19 18 18 17 17 17 16 15 15 15 16 17 18 19 19 19 20 21 23 24 24 25 24 23 21 18 16 15 16 17 19 21 23 26 28
18 18 19 20 21 21 21 21 20 20 19 19 19 17 14 13 12 12 13 13 13 13 13 13 13 14 16 18 20 22 23 22 20 18 16 15 16 18 20 22 24 25 27
17 18 19 20 21 22 23 22 22 22 22 22 20 17 14 10 8 8 8 10 9 9 9 9 6 5 5 8 12 16 19 19 17 15 13 14 15 16 17 19 20 22 23
17 17 18 20 21 21 22 23 24 25 25 24 22 19 16 12 10 9 10 10 11 12 12 12 11 9 8 10 11 14 15 13 10 8 8 9 10 12 14 16 18 21 23
16 17 18 19 19 20 22 23 25 25 26 26 24 23 21 19 17 16 16 16 16 17 18 18 18 18 18 18 17 16 13 10 6 3 1 4 8 11 13 16 18 20 22
16 17 18 19 19 19 21 22 23 24 26 26 26 25 25 24 23 22 22 22 22 22 22 23 23 23 22 22 20 18 16 13 9 7 5 6 8 10 12 14 16 18 19
15 16 17 18 18 19 19 20 22 23 24 25 26 26 26 26 25 25 25 25 25 25 25 25 25 25 24 22 21 19 17 14 12 10 8 8 9 10 11 12 13 15 16
14 15 17 18 18 18 18 18 19 20 21 22 23 24 25 25 25 25 25 25 25 25 25 25 24 24 23 21 19 18 16 14 13 12 11 11 11 11 12 12 14 15 17
12 14 16 17 17 17 17 17 17 17 18 20 20 21 22 22 22 22 22 22 22 22 22 22 21 21 20 19 18 17 16 15 14 13 12 12 12 12 13 14 15 17 18
10 12 14 16 17 17 16 16 15 15 16 17 18 18 19 19 20 19 19 19 19 19 19 18 18 17 17 16 16 15 14 13 12 12 12 12 12 13 14 15 17 18 20
8 9 11 14 16 16 15 15 14 14 14 14 15 15 16 17 17 17 17 17 17 16 16 16 15 15 14 13 13 12 11 11 11 11 11 12 13 14 15 16 18 20 22
5 6 8 11 14 15 15 14 13 13 13 13 13 13 14 14 14 15 15 15 15 15 15 15 15 14 13 12 12 11 11 10 10 11 11 12 13 14 16 17 19 21 23
4 4 6 9 11 13 15 14 13 12 12 12 11 11 12 12 12 13 13 13 14 14 15 15 15 15 14 14 13 13 13 12 12 13 13 13 15 16 17 18 20 22 24
Wind_Direction
264 266 265 259 255 248 239 228 225 230 241 252 260 264 265 265 265 265 266 266 261 256 255 258 261 261 260 260 259 257 254 252 250 248 246 244 238 236 238 241 243 242 242
249 251 246 239 232 214 208 214 228 241 250 256 260 263 265 265 265 264 263 263 259 255 253 254 255 256 255 255 256 257 258 256 253 249 244 242 237 231 234 240 243 244 243
203 201 193 180 171 168 182 204 232 247 257 263 267 269 269 269 268 266 262 259 257 254 251 251 251 252 252 252 254 256 259 258 254 250 245 241 236 232 233 237 242 246 249
104 104 101 102 106 116 193 243 262 270 276 277 275 274 275 276 277 273 267 260 258 254 251 251 251 251 249 248 250 253 256 255 253 252 247 242 239 236 237 239 244 249 253
73 78 80 79 72 23 303 292 290 288 286 283 279 278 278 280 281 279 273 265 261 258 255 253 252 252 251 248 248 251 253 253 253 254 251 249 245 242 242 245 248 251 254
49 50 46 30 360 327 312 303 298 295 291 286 283 280 280 282 282 281 277 271 266 262 259 255 253 252 252 251 250 251 252 254 254 253 252 254 251 247 247 251 252 253 255
20 11 358 342 326 313 306 301 297 294 290 287 286 285 284 284 283 281 278 274 270 267 263 260 257 252 250 251 251 252 253 253 254 253 253 256 257 255 254 256 257 257 258
1 351 339 329 319 310 304 301 298 295 292 289 287 286 285 284 283 280 277 272 270 269 267 265 264 260 253 249 249 250 251 253 253 254 254 255 256 259 261 261 262 262 263
357 348 339 330 321 314 309 304 301 297 294 292 289 287 286 285 284 282 279 275 273 271 271 271 270 268 261 254 250 249 249 250 251 252 254 256 258 260 263 265 266 265 265
5 357 348 339 330 323 317 312 307 302 297 294 291 289 286 285 285 284 282 279 277 275 274 271 269 266 264 260 254 250 249 248 249 250 251 254 257 260 261 262 265 266 267
15 8 1 355 348 341 334 327 320 314 308 303 298 293 290 288 287 285 284 282 280 279 277 273 268 264 260 258 255 251 248 248 249 250 251 253 255 258 259 261 264 265 266
21 16 11 7 2 355 349 342 336 330 323 317 310 304 299 295 291 288 285 284 284 282 280 275 269 264 259 255 253 250 248 247 248 249 251 253 256 258 261 262 263 264 263
27 22 18 15 10 5 360 354 348 341 335 328 321 314 308 302 296 292 288 288 288 286 283 276 269 263 259 255 251 248 244 242 244 246 250 256 261 265 268 269 268 266 266
30 27 25 21 17 13 9 5 0 354 348 341 333 325 317 310 305 301 296 293 293 291 288 282 273 267 259 253 248 243 238 234 234 239 248 259 267 272 275 276 277 276 276
32 30 27 24 21 18 14 11 7 2 356 350 345 338 331 322 316 313 311 311 312 309 306 298 284 274 263 251 240 232 226 224 226 234 247 261 271 278 282 283 284 285 286
33 31 29 26 23 19 17 15 13 9 6 3 1 360 359 357 355 350 346 346 348 348 346 343 330 297 261 226 211 204 203 207 216 229 246 263 274 281 285 287 289 290 291
31 29 27 25 23 21 20 19 18 17 17 18 22 26 30 35 40 38 30 30 36 37 40 46 58 76 99 125 145 159 169 181 196 221 250 272 285 292 295 297 298 298 297
27 26 25 24 23 23 23 23 24 25 27 32 39 44 50 55 59 61 60 61 61 61 64 68 73 83 94 103 112 122 129 134 139 142 315 317 316 314 312 310 309 306 304
25 26 26 25 24 26 27 28 30 33 35 40 47 53 58 62 65 67 67 66 67 69 71 75 79 84 89 94 97 100 100 98 90 71 38 4 346 336 331 328 325 322 319
27 29 29 27 26 28 31 34 36 39 42 46 51 56 60 63 66 67 68 69 71 73 75 77 79 81 83 85 86 86 84 81 75 64 49 33 20 10 4 359 353 348 343
32 33 32 29 27 28 32 37 40 43 46 49 53 57 61 64 66 67 68 70 71 73 74 76 77 78 79 80 80 80 79 75 71 64 56 48 39 31 23 15 8 1 354
38 37 34 29 26 27 31 36 40 44 47 51 54 57 59 61 63 65 67 69 70 71 72 74 75 76 77 77 77 77 75 72 69 64 58 50 42 35 28 21 14 7 360
44 39 34 29 26 25 27 33 39 43 46 49 52 55 57 59 61 62 64 65 66 66 67 68 69 70 71 72 72 71 69 66 63 59 53 46 40 34 29 24 19 13 7
41 35 30 26 24 22 23 26 33 40 43 45 47 51 54 56 57 58 59 60 61 61 60 60 60 59 59 58 57 55 53 50 47 43 39 33 29 26 22 18 14 11 8
27 23 20 19 20 21 21 22 24 30 36 40 41 44 48 50 52 53 54 55 55 55 54 53 52 50 48 45 42 38 34 30 26 23 20 18 16 14 12 10 9 9 8
359 4 6 8 12 17 20 20 20 21 25 31 36 39 42 45 47 48 49 50 51 50 50 49 48 47 46 43 40 34 29 24 19 15 11 9 8 8 7 7 7 8 9
Height
5792 5792 5792 5792 5793 5794 5795 5797 5799 5801 5804 5807 5809 5809 5809 5808 5806 5805 5805 5805 5804 5804 5804 5804 5804 5804 5804 5804 5804 5803 5803 5804 5805 5805 5806 5807 5809 5812 5814 5816 5818 5820 5822
5786 5787 5787 5788 5789 5790 5791 5793 5795 5798 5800 5802 5803 5802 5802 5801 5799 5798 5797 5797 5797 5797 5797 5797 5797 5798 5799 5799 5799 5798 5798 5799 5799 5800 5800 5802 5804 5807 5809 5812 5813 5815 5817
5782 5784 5785 5785 5787 5788 5789 5791 5793 5795 5796 5797 5797 5796 5795 5794 5792 5791 5790 5790 5790 5789 5790 5790 5790 5791 5793 5793 5794 5794 5794 5794 5794 5795 5795 5797 5799 5802 5804 5807 5809 5811 5812
5781 5783 5784 5784 5786 5787 5789 5790 5791 5791 5791 5791 5791 5790 5789 5787 5786 5785 5784 5783 5783 5783 5783 5783 5783 5785 5786 5787 5788 5789 5789 5789 5789 5790 5790 5792 5794 5796 5799 5801 5803 5806 5808
5782 5783 5784 5785 5786 5787 5787 5787 5787 5786 5786 5785 5784 5783 5782 5781 5780 5778 5777 5777 5776 5776 5776 5776 5777 5778 5779 5780 5782 5783 5784 5784 5785 5786 5786 5787 5789 5791 5793 5795 5797 5800 5801
5784 5784 5784 5784 5785 5785 5784 5784 5783 5782 5781 5780 5779 5777 5776 5775 5774 5772 5772 5771 5770 5769 5769 5769 5770 5771 5772 5773 5775 5776 5778 5779 5780 5781 5782 5783 5784 5785 5787 5789 5791 5793 5794
5785 5784 5784 5784 5783 5782 5782 5781 5779 5778 5777 5775 5773 5771 5769 5768 5767 5766 5765 5765 5763 5763 5763 5762 5763 5763 5764 5766 5767 5769 5771 5773 5775 5776 5777 5778 5779 5780 5781 5783 5784 5786 5787
5785 5784 5783 5782 5781 5780 5778 5777 5775 5773 5770 5768 5766 5764 5763 5761 5760 5760 5759 5758 5758 5757 5756 5756 5756 5756 5757 5758 5760 5762 5764 5766 5768 5770 5772 5773 5774 5775 5776 5777 5778 5779 5780
5785 5784 5782 5780 5779 5777 5775 5772 5770 5767 5764 5762 5760 5758 5756 5755 5754 5754 5753 5753 5752 5751 5751 5751 5751 5751 5751 5751 5753 5755 5757 5759 5761 5763 5765 5767 5768 5770 5771 5772 5773 5773 5774
5785 5783 5781 5778 5776 5773 5771 5768 5765 5762 5759 5757 5754 5752 5751 5749 5748 5748 5747 5746 5745 5745 5744 5744 5745 5745 5745 5745 5747 5749 5751 5752 5754 5756 5759 5761 5763 5764 5765 5766 5767 5767 5767
5784 5782 5780 5777 5774 5771 5767 5764 5761 5758 5755 5752 5750 5747 5745 5744 5742 5741 5740 5739 5738 5737 5737 5737 5737 5738 5739 5740 5741 5743 5744 5746 5748 5751 5753 5755 5757 5758 5759 5760 5761 5761 5761
5785 5783 5780 5776 5773 5769 5766 5762 5758 5755 5752 5748 5745 5742 5740 5738 5736 5734 5733 5732 5731 5730 5729 5729 5729 5730 5731 5732 5734 5736 5739 5741 5744 5746 5748 5750 5752 5753 5754 5754 5754 5754 5754
5787 5784 5781 5777 5773 5769 5765 5761 5757 5753 5749 5745 5741 5738 5735 5732 5730 5728 5727 5726 5724 5723 5722 5721 5720 5721 5722 5724 5727 5730 5733 5736 5739 5742 5744 5746 5747 5748 5749 5749 5749 5748 5748
5788 5785 5782 5778 5774 5770 5765 5760 5756 5751 5747 5742 5738 5734 5730 5727 5725 5723 5721 5720 5718 5716 5714 5713 5712 5712 5713 5715 5718 5722 5726 5730 5734 5738 5740 5742 5743 5744 5744 5744 5743 5743 5742
5790 5787 5783 5780 5776 5771 5766 5761 5756 5751 5746 5741 5735 5730 5725 5722 5721 5719 5717 5715 5713 5711 5709 5706 5705 5705 5705 5706 5710 5714 5720 5725 5730 5734 5737 5738 5739 5739 5739 5738 5737 5736 5735
5793 5789 5785 5782 5777 5773 5768 5763 5758 5752 5746 5740 5733 5727 5722 5720 5719 5718 5716 5714 5712 5710 5707 5703 5701 5700 5700 5701 5704 5709 5716 5722 5728 5731 5734 5735 5736 5735 5735 5734 5732 5731 5729
5795 5792 5788 5784 5780 5776 5771 5766 5760 5754 5747 5740 5734 5729 5724 5722 5720 5719 5718 5716 5714 5711 5708 5705 5702 5701 5701 5702 5706 5711 5717 5722 5727 5730 5732 5732 5732 5732 5731 5729 5727 5725 5723
5797 5794 5790 5786 5782 5778 5774 5769 5763 5757 5751 5745 5739 5734 5730 5727 5725 5723 5722 5720 5718 5715 5713 5710 5708 5707 5708 5709 5712 5716 5720 5724 5727 5729 5730 5731 5730 5729 5727 5725 5723 5720 5717
5799 5796 5792 5789 5785 5781 5777 5772 5767 5762 5756 5751 5746 5741 5738 5735 5732 5730 5728 5726 5723 5721 5719 5718 5716 5716 5716 5717 5719 5722 5724 5727 5728 5730 5730 5729 5728 5727 5724 5722 5719 5715 5711
5801 5798 5795 5791 5788 5784 5780 5775 5771 5767 5762 5758 5753 5750 5746 5743 5740 5738 5736 5733 5731 5729 5727 5726 5725 5724 5725 5725 5726 5727 5728 5729 5730 5730 5730 5729 5727 5725 5722 5719 5716 5712 5708
5803 5800 5797 5794 5791 5787 5783 5779 5776 5772 5768 5764 5761 5757 5754 5751 5748 5746 5744 5742 5740 5738 5736 5734 5733 5732 5732 5732 5732 5732 5732 5732 5732 5731 5730 5729 5727 5724 5721 5718 5714 5710 5706
5804 5802 5799 5796 5793 5790 5786 5783 5779 5776 5773 5770 5767 5764 5761 5758 5756 5753 5751 5749 5747 5745 5743 5742 5740 5739 5738 5738 5737 5736 5736 5735 5734 5733 5731 5729 5727 5724 5721 5717 5713 5709 5704
5806 5803 5801 5799 5796 5793 5790 5786 5783 5780 5777 5775 5772 5769 5767 5764 5762 5759 5757 5755 5753 5751 5749 5747 5746 5744 5743 5742 5741 5740 5738 5737 5736 5734 5732 5729 5727 5724 5720 5716 5712 5708 5703
5807 5805 5803 5800 5798 5795 5792 5789 5786 5784 5781 5778 5776 5774 5771 5769 5767 5764 5762 5760 5757 5755 5753 5751 5749 5748 5746 5745 5743 5742 5740 5739 5737 5735 5732 5730 5727 5724 5720 5716 5712 5707 5702
5807 5806 5804 5802 5799 5797 5794 5791 5789 5786 5784 5781 5779 5777 5775 5772 5770 5768 5766 5764 5761 5759 5757 5755 5753 5751 5749 5747 5746 5744 5742 5740 5738 5736 5733 5730 5727 5724 5720 5716 5712 5707 5702
5807 5806 5804 5803 5800 5798 5795 5793 5791 5788 5786 5784 5782 5779 5777 5775 5773 5771 5769 5767 5765 5763 5760 5758 5756 5754 5752 5750 5748 5745 5743 5741 5738 5736 5733 5730 5727 5724 5720 5716 5711 5707 5701